Location: Unspecified
(52.4292°N, 19.3359°E)
Time: 15:13:27
(UTC+02:00)

Transit 2A Rocket - Pass Details

Date: 28 May 2024
Orbit: 583 x 910 km, 66.7° (Epoch: 14 June)

Event Time Altitude Azimuth Distance (km) Brightness Sun altitude
Rises 13:08:52 0° 312° (NW) 3,456 8.2 58.7°
Reaches altitude 10° 13:12:06 10° 294° (WNW) 2,553 7.8 58.5°
Maximum altitude 13:15:56 18° 254° (WSW) 2,063 7.7 58.4°
Drops below altitude 10° 13:19:50 10° 214° (SSW) 2,590 8.4 58.2°
Sets 13:23:09 0° 196° (SSW) 3,526 8.9 58.1°
